Theta_e
296 296 296 296 296 298 299 300 302 303 304 303 303 304 303 302 301 301 305 309 310 309 309 310 311 312 314 317 318 319 319 318 318 318 318 318 317 317 317 317 317 316 316 316 316 316 316 316 315 316 316 315 315 315 314 315 314 314 314 314 314 314 314 313 313 313 313 313 313 313 313 313 313 313 313 313 313 313 312 313 312 313 313 313 313 313
296 296 296 296 296 297 299 299 301 304 305 305 305 304 303 300 299 300 303 307 308 308 309 309 309 309 311 315 317 319 319 318 318 318 317 317 317 317 317 317 316 316 316 316 316 316 316 315 315 315 315 315 315 315 315 315 314 314 314 314 314 314 314 313 313 313 313 313 313 313 313 313 312 313 312 312 312 312 312 312 312 312 312 312 312 313
297 297 296 296 296 297 298 299 301 304 305 306 306 305 303 301 300 301 303 306 306 307 308 308 308 308 308 312 316 318 319 319 318 318 317 317 317 317 317 316 316 316 316 316 316 315 315 315 315 315 315 315 315 315 315 315 315 315 314 314 314 314 314 314 313 313 313 313 313 313 312 313 312 312 312 312 312 312 312 312 312 312 312 312 312 312
297 297 297 297 296 297 297 299 301 303 305 306 306 305 303 301 301 302 304 305 305 304 304 305 306 307 308 310 314 317 319 319 318 318 317 317 317 317 317 316 316 316 316 316 316 315 315 315 315 315 315 315 315 315 315 315 315 315 314 314 314 314 314 314 313 314 313 313 313 312 312 312 312 312 312 312 312 312 311 312 312 312 312 312 312 312
297 298 297 297 297 297 297 299 300 302 304 305 306 305 303 302 302 302 304 304 304 302 301 301 302 303 306 307 311 316 318 319 319 318 318 317 317 317 317 317 316 316 316 316 316 315 315 315 315 315 315 315 315 315 315 315 315 315 314 314 314 314 314 314 313 314 314 313 313 312 312 312 312 312 312 312 312 312 312 312 312 311 312 312 312 312
297 297 297 297 297 298 299 299 300 301 302 303 304 304 304 302 302 303 304 304 304 303 301 299 298 298 301 303 309 314 317 318 318 318 318 317 317 317 317 317 317 316 316 316 316 316 315 315 315 315 315 315 315 315 315 315 315 315 314 314 314 314 314 313 313 313 313 313 313 313 312 312 312 312 312 312 312 312 312 311 311 311 311 311 311 311
297 297 296 296 297 298 298 299 300 301 302 302 303 304 303 303 302 302 302 303 303 303 301 299 297 296 297 301 305 311 314 317 318 318 318 318 318 317 317 317 317 316 316 316 316 316 316 315 315 315 315 315 315 315 315 315 315 314 314 313 313 313 313 313 312 312 312 313 313 313 313 313 312 312 312 312 312 312 312 311 311 311 311 311 311 311
297 296 296 296 297 297 297 297 298 300 301 302 303 303 302 302 301 301 301 302 302 302 302 300 298 297 296 299 302 306 310 314 316 317 316 317 317 317 317 317 317 317 317 316 316 316 316 315 315 315 315 315 315 314 315 314 313 313 312 312 311 311 311 311 311 312 312 312 313 313 313 313 312 312 312 312 312 312 312 311 311 311 310 311 311 311
297 297 296 295 296 297 298 297 296 297 298 301 302 303 302 301 301 301 301 302 302 302 301 300 299 299 298 298 301 304 308 311 313 313 311 311 310 311 315 316 316 316 317 316 316 315 315 314 314 313 313 313 312 312 311 310 310 310 309 309 309 309 310 310 310 310 310 311 312 312 312 312 312 312 312 312 312 312 311 311 310 310 310 310 310 310
294 295 295 295 295 297 298 298 296 295 294 298 301 303 303 301 300 300 300 301 302 301 301 301 301 301 300 299 300 301 305 308 310 311 310 308 308 309 312 313 314 314 315 314 313 312 312 311 310 310 309 309 308 308 308 308 308 308 308 308 308 309 309 309 309 310 310 310 311 311 312 312 311 311 311 311 311 311 310 310 310 310 310 310 310 310
294 295 295 295 296 296 297 297 296 295 294 296 299 302 303 301 300 300 299 300 300 301 301 301 301 300 300 299 299 299 300 302 305 306 308 308 309 310 310 310 310 311 310 310 309 309 308 308 308 307 307 307 306 306 307 307 307 307 308 308 308 309 309 309 310 310 310 310 310 310 310 310 310 310 310 310 309 309 309 309 309 309 309 309 310 310
296 296 296 296 296 296 296 296 296 296 295 297 298 300 301 301 301 301 300 300 300 301 301 300 299 298 297 296 296 296 297 298 298 299 299 300 301 303 304 304 304 305 305 306 306 306 306 306 306 306 306 306 306 307 307 307 307 308 308 308 308 309 309 309 309 309 309 309 309 309 309 308 308 308 308 308 307 307 308 308 308 308 309 309 309 310
296 297 298 297 297 296 295 295 296 296 296 296 296 297 298 299 300 301 302 302 302 302 301 300 298 297 296 295 295 294 295 295 295 294 294 293 293 294 295 295 295 295 295 296 298 300 303 305 305 306 307 307 307 307 308 307 308 308 308 308 308 307 308 307 307 307 307 307 306 306 306 306 306 306 306 306 306 306 307 307 307 308 308 309 309 309
296 297 297 296 296 296 295 296 295 295 295 295 295 295 295 296 297 299 301 302 303 302 302 300 298 296 296 296 295 295 294 294 293 294 294 292 291 291 291 291 290 290 290 290 291 293 298 299 300 302 306 306 307 307 307 307 307 307 307 307 306 306 306 306 305 305 305 305 305 305 305 305 305 305 305 305 305 305 305 306 306 307 307 308 308 309
294 295 296 295 295 294 295 295 295 295 295 295 295 295 294 294 295 297 300 301 301 301 301 299 297 295 295 295 295 295 295 294 295 295 295 293 291 290 289 289 289 289 289 289 289 291 293 294 295 298 302 303 304 305 306 306 306 306 305 305 305 304 304 304 304 304 304 304 304 304 304 304 304 304 304 304 304 304 305 305 305 306 306 307 307 308
293 294 295 294 293 293 293 294 294 294 294 295 295 294 293 293 294 295 296 298 299 300 300 298 296 295 295 295 295 295 295 295 294 294 294 293 292 291 288 289 289 289 289 289 289 289 290 291 293 296 300 303 305 305 305 305 305 304 304 304 304 303 303 303 303 303 303 303 303 303 303 303 303 303 303 303 303 303 304 304 304 304 305 305 306 306
294 294 294 293 292 292 292 293 293 293 293 294 294 294 294 294 294 294 295 297 298 299 299 298 296 295 294 294 294 294 294 294 293 292 292 293 293 292 289 289 289 289 288 289 288 288 289 291 294 297 300 304 305 305 304 304 304 304 303 303 303 302 302 302 302 302 302 302 302 302 302 302 302 302 302 302 302 302 302 303 303 303 303 304 304 305
292 293 293 292 291 291 291 292 292 292 292 293 293 294 294 293 293 293 293 295 297 298 298 298 297 296 294 292 292 293 293 293 293 292 292 292 292 291 289 289 289 288 288 288 288 288 288 289 293 297 301 303 304 304 304 303 303 303 303 302 302 302 302 301 301 301 301 301 301 301 301 301 301 301 301 301 301 301 301 301 302 302 302 303 303 303
289 290 290 290 290 290 290 290 290 291 291 291 292 292 293 293 293 292 292 292 294 295 295 295 295 294 293 292 292 292 292 292 292 292 291 291 291 290 288 289 289 289 288 288 288 288 288 288 293 300 304 304 303 303 303 302 302 302 302 301 301 301 301 300 300 300 300 300 300 300 300 300 300 300 300 300 300 300 300 300 301 301 301 302 302 302
286 287 288 289 289 289 288 289 290 290 291 291 291 291 291 292 292 292 291 291 292 292 292 291 291 290 291 291 291 292 292 292 292 291 289 289 289 289 287 288 289 288 288 287 287 287 287 287 290 296 304 303 303 302 302 302 301 301 300 300 300 300 299 299 299 299 299 299 299 299 299 299 299 299 299 299 299 299 299 299 300 300 300 301 301 301
285 285 286 288 288 288 288 288 289 290 291 291 291 290 290 290 290 291 291 292 292 292 292 291 290 290 290 290 291 291 291 292 291 290 288 288 287 287 287 287 287 287 287 287 287 286 286 287 288 292 301 302 302 301 301 300 300 300 299 299 299 299 298 298 298 298 298 298 298 298 298 298 298 298 298 298 298 298 298 299 299 299 299 300 300 300
286 286 286 287 288 288 288 289 290 291 292 291 290 289 289 289 289 289 289 290 290 290 290 290 290 290 291 290 290 290 290 290 290 289 289 288 288 288 287 287 287 288 288 287 286 286 286 287 289 292 299 301 301 300 299 299 299 298 298 298 298 297 297 297 297 297 297 297 297 297 297 297 297 297 297 297 297 297 298 298 298 298 299 299 299 299
287 287 287 288 288 289 289 290 290 291 292 291 290 290 290 289 289 289 289 289 289 289 289 290 290 291 291 290 289 289 289 290 290 289 289 288 288 287 286 286 287 288 287 286 286 286 286 287 289 291 296 299 300 299 298 298 298 297 297 297 297 296 296 296 296 296 296 296 296 296 296 296 296 296 296 296 296 296 297 297 297 298 298 298 298 298
288 288 288 289 289 290 290 290 291 291 292 291 291 291 291 291 290 290 290 290 290 290 290 290 290 289 289 289 288 288 288 289 289 290 289 288 288 287 286 286 286 287 286 286 285 285 286 286 287 288 291 296 297 297 297 296 296 296 296 295 295 295 295 295 295 295 295 295 295 295 295 295 295 295 295 296 296 296 296 296 296 297 297 297 297 297
290 290 291 291 292 292 292 292 292 292 292 292 291 291 292 292 291 291 291 290 290 290 289 289 288 287 287 287 287 287 287 288 288 288 288 287 286 286 286 285 286 286 285 284 284 285 285 285 285 285 286 290 293 296 296 295 295 295 295 294 294 294 294 294 294 294 294 294 294 294 294 295 295 295 295 295 295 295 295 296 296 296 296 297 297 297
292 292 293 293 294 294 294 294 294 293 293 292 291 291 291 291 291 290 289 288 288 288 287 286 285 285 286 286 286 286 286 286 286 287 286 286 285 285 285 285 285 284 284 283 284 286 286 285 284 284 284 285 289 293 294 294 294 294 293 294 293 293 293 294 294 293 293 293 294 294 294 294 294 294 294 294 294 294 295 295 295 295 296 296 296 296
292 293 293 293 293 293 293 292 293 292 292 292 291 291 290 289 288 287 285 286 286 287 286 285 284 284 285 285 284 284 285 286 285 285 285 285 284 284 284 284 283 283 283 283 284 286 287 285 283 283 283 283 286 289 292 292 292 292 293 293 293 293 293 293 293 293 293 293 293 293 293 293 293 293 294 294 294 294 294 294 295 295 295 295 294 294
291 290 290 290 290 290 290 290 291 291 290 290 290 289 287 286 285 283 282 283 285 286 285 285 284 284 284 283 283 283 284 284 284 285 285 285 283 282 282 282 282 282 282 283 284 285 286 284 282 282 282 283 284 286 289 290 291 291 291 292 292 292 292 292 292 292 292 292 292 292 292 293 293 293 293 293 293 294 294 294 294 294 294 293 292 291
287 287 287 287 287 287 287 287 288 289 289 288 288 287 285 283 282 281 281 282 284 285 285 284 284 283 283 282 282 283 283 283 284 284 285 284 282 281 281 282 282 282 282 282 282 282 282 281 281 280 280 283 283 283 285 287 288 288 289 290 291 291 292 291 291 291 291 292 292 292 292 292 292 292 292 293 293 293 293 293 294 293 293 291 289 289
282 282 282 283 283 283 283 283 284 286 287 287 286 285 284 282 281 281 281 282 283 283 283 283 283 282 282 282 282 282 281 282 283 284 284 282 281 280 281 281 281 281 281 281 281 280 280 280 280 280 281 282 282 282 282 283 284 284 285 287 288 290 291 291 290 291 291 291 291 291 291 291 291 292 292 292 292 292 293 293 293 292 290 288 287 287
278 278 278 279 279 280 280 280 281 282 283 284 284 283 283 282 281 281 281 281 281 281 281 281 281 281 282 282 281 280 279 280 283 285 284 282 280 279 280 280 280 280 279 279 279 279 278 279 280 281 280 281 281 281 282 282 282 282 282 283 285 287 290 290 290 290 290 290 290 291 291 291 291 291 291 291 291 292 292 292 292 291 288 287 286 286
277 277 277 277 278 278 279 279 279 279 280 280 281 281 281 281 281 281 280 280 280 280 280 280 280 280 280 281 280 279 278 279 282 285 283 282 280 279 279 279 279 279 279 278 278 277 276 277 278 279 279 279 280 281 282 283 282 281 282 282 283 284 288 288 289 289 289 289 290 290 290 290 290 290 290 290 290 291 291 291 291 290 288 286 286 286
277 277 277 277 277 278 278 278 278 278 278 279 279 279 280 280 280 280 280 280 280 280 280 279 279 279 279 279 278 278 278 279 282 284 284 281 280 279 278 278 278 277 277 277 277 276 276 276 276 277 278 279 279 280 280 282 282 282 281 281 281 282 285 286 286 286 287 288 288 288 289 289 289 289 289 289 290 290 290 291 291 291 289 287 286 286
277 277 276 276 276 277 277 277 277 277 277 278 278 278 278 279 279 279 279 279 279 279 279 279 279 278 278 278 277 277 278 279 281 283 284 281 279 278 278 277 277 276 276 276 276 275 275 275 275 276 277 278 279 279 279 280 281 281 279 280 280 281 282 283 283 284 284 285 285 285 286 286 287 288 288 288 289 289 290 290 290 290 290 288 287 286
275 275 275 275 275 276 276 276 276 276 276 277 277 277 278 277 277 278 278 278 279 279 279 279 279 279 278 277 277 277 277 278 280 282 283 281 279 278 277 277 277 276 276 275 275 275 274 275 276 277 277 277 278 278 278 278 279 279 279 280 280 280 280 280 281 281 282 282 282 282 282 283 284 285 286 287 288 289 289 289 290 290 290 290 289 287
274 274 274 274 274 275 275 275 275 275 275 276 276 276 277 276 276 276 277 277 278 278 279 279 279 279 279 278 277 277 277 277 279 281 282 280 279 278 277 277 277 277 276 275 275 274 274 275 276 277 277 276 276 277 278 278 278 279 279 280 280 280 279 280 279 279 279 280 281 281 281 282 282 283 284 286 287 288 288 288 289 289 289 290 290 290
273 273 273 273 273 274 274 274 274 274 274 275 275 276 276 275 275 275 276 275 276 277 277 278 279 279 280 279 278 278 277 278 278 279 279 279 279 278 277 277 278 278 277 276 276 275 275 275 275 276 276 275 275 275 277 278 278 278 278 279 279 279 279 279 279 279 278 280 281 281 282 282 282 283 284 286 287 287 287 288 288 288 289 289 290 290
272 272 272 272 273 273 273 273 273 274 274 274 275 275 275 275 274 274 275 275 275 275 275 276 277 277 279 280 279 278 277 277 277 277 277 277 278 278 278 278 278 279 278 278 277 277 276 275 274 274 274 274 275 276 278 278 277 277 277 278 278 279 278 278 278 278 279 279 281 282 282 282 281 281 282 283 284 283 283 284 285 287 288 288 289 289
271 271 272 272 272 272 272 273 273 273 274 274 275 275 274 275 275 275 275 275 275 274 274 275 275 275 276 277 278 278 277 277 277 276 276 275 276 277 278 277 277 278 278 278 278 277 276 275 274 274 274 274 274 276 276 276 276 276 276 277 278 278 278 278 278 278 279 279 280 281 281 280 280 280 280 281 281 280 281 281 283 284 285 284 285 287
271 271 271 272 272 272 272 273 273 273 273 274 275 275 275 275 275 275 275 275 276 275 274 274 275 275 275 276 277 277 276 276 276 277 275 275 275 276 277 277 277 277 277 277 277 277 276 275 275 275 276 275 275 275 275 275 275 276 278 277 277 277 279 279 278 277 277 277 278 278 279 279 279 280 280 280 279 279 279 280 281 282 283 282 281 281
271 270 271 272 272 273 273 273 273 273 273 273 273 273 274 274 274 274 274 275 275 275 275 275 275 274 274 274 274 274 275 275 276 276 274 274 274 275 276 277 277 277 276 276 276 276 276 276 276 276 276 276 276 277 277 276 278 279 280 278 278 279 280 280 279 277 277 276 277 278 279 280 280 280 280 280 280 279 280 280 280 281 283 281 280 279
271 271 270 271 271 272 272 272 273 274 273 273 272 272 272 273 273 273 273 273 273 274 274 273 273 273 272 273 273 274 274 274 275 276 275 274 274 274 275 276 276 277 276 275 275 275 276 276 276 276 276 276 276 276 276 277 278 280 280 278 278 278 278 278 277 275 275 276 277 278 280 280 279 278 279 279 278 279 281 280 280 282 283 281 279 278
270 270 270 270 270 271 272 273 273 273 273 272 272 272 272 272 273 273 273 272 272 273 273 272 272 271 271 271 272 272 273 273 274 275 275 274 274 274 274 274 275 276 276 275 274 274 274 276 276 275 275 275 275 274 274 275 276 276 276 277 277 276 275 275 274 274 275 277 277 277 277 278 278 278 278 278 279 279 280 281 283 284 283 281 280 279
270 270 270 270 270 271 272 271 271 271 271 271 271 271 271 272 273 273 272 271 272 272 272 271 270 270 270 270 270 271 271 272 272 273 274 277 277 276 274 273 274 274 275 274 274 273 273 274 274 274 275 275 274 274 273 273 273 273 274 276 276 275 274 275 275 275 276 277 277 277 276 277 277 277 277 277 277 278 278 278 278 279 281 280 279 278
269 269 269 270 270 271 270 270 270 270 270 271 270 270 271 271 272 272 272 271 271 271 271 271 271 270 269 269 269 269 270 270 271 273 273 276 278 278 275 274 273 273 273 274 274 273 273 272 272 273 273 274 274 273 273 272 272 273 275 276 277 276 275 275 276 275 275 276 276 276 276 276 275 275 275 275 275 276 276 276 277 277 278 278 278 278
268 268 268 268 269 269 269 269 269 269 269 270 270 270 270 270 271 271 271 271 271 271 271 270 270 269 269 268 268 268 268 269 270 271 272 273 274 274 275 275 275 275 274 273 273 273 273 273 272 272 272 273 272 272 272 272 271 272 273 274 275 274 274 275 275 275 275 275 275 275 274 274 274 274 275 275 275 275 275 276 276 276 276 277 277 277
267 267 266 267 267 267 267 268 268 268 269 269 269 269 269 270 270 270 270 270 270 270 270 270 269 269 268 268 267 267 268 268 269 269 270 272 272 272 273 273 275 275 275 274 273 273 273 273 273 272 272 271 271 270 270 270 270 271 272 272 273 273 272 273 273 274 274 274 274 273 272 273 273 274 274 275 275 275 275 276 276 276 276 277 277 277
266 266 266 266 266 266 266 266 267 267 267 268 268 268 269 270 271 270 269 269 269 269 270 269 268 268 267 267 268 268 269 269 269 269 270 270 271 271 272 272 273 274 274 274 275 274 274 273 273 273 272 271 270 269 269 269 270 270 271 272 272 272 271 272 272 273 273 274 273 273 272 273 273 273 274 274 274 275 275 275 275 276 276 276 276 276
265 265 265 265 265 264 265 265 265 266 267 267 267 267 267 269 270 270 268 268 268 268 268 268 267 267 267 267 268 269 270 270 269 269 270 270 270 270 270 271 272 272 271 271 271 271 272 273 273 274 274 273 271 270 269 270 270 270 270 271 271 271 270 271 272 273 273 272 272 273 273 273 273 273 273 273 273 274 274 275 275 275 275 275 276 276
265 265 265 264 264 264 263 264 265 266 267 267 267 266 266 267 267 267 267 267 267 267 266 266 266 266 266 266 267 268 269 268 269 269 270 270 270 270 270 271 271 270 270 269 269 270 270 271 272 274 276 277 275 273 270 270 270 269 269 269 269 270 270 271 272 272 273 273 273 273 273 273 273 273 272 272 272 273 273 274 274 275 275 275 275 276
265 265 264 263 264 264 263 264 266 266 267 267 267 266 265 265 265 265 265 266 266 266 265 265 265 266 267 267 268 268 269 268 268 269 270 270 270 271 271 272 271 270 269 268 268 268 268 268 269 270 273 278 279 277 272 271 270 269 269 269 269 268 269 269 270 272 273 273 273 272 272 272 272 272 272 271 271 272 273 273 274 274 274 275 275 276
Wind_Speed
1 1 1 1 3 3 3 3 4 4 4 3 3 3 3 3 3 3 5 6 7 7 7 7 7 8 10 13 15 15 16 15 15 14 14 13 13 13 12 12 11 11 11 11 11 10 10 10 10 10 9 9 8 7 7 6 6 5 5 5 5 5 6 6 6 6 6 6 6 7 7 8 8 9 9 9 10 10 10 10 10 10 10 10 10 10
1 1 1 1 2 2 2 3 4 5 5 5 4 4 4 4 3 2 3 4 5 6 7 7 7 8 8 10 13 15 15 15 15 14 14 14 13 13 12 12 11 11 11 11 11 11 11 10 10 10 10 9 9 8 7 6 6 5 5 5 5 5 5 5 5 5 5 5 5 5 6 6 7 7 8 8 8 9 9 9 9 10 10 10 10 10
0 0 1 0 1 2 2 3 4 5 5 5 5 5 5 5 4 4 3 4 4 5 5 6 7 7 8 9 11 14 15 15 15 15 14 14 13 13 12 12 11 11 11 11 11 11 11 11 10 10 10 10 9 9 8 7 6 6 5 5 4 4 4 4 4 4 4 3 3 4 4 4 5 5 6 7 7 8 8 9 9 9 10 10 10 10
1 1 2 1 1 1 2 3 3 4 4 5 5 5 5 5 4 4 4 3 3 3 3 4 5 6 7 7 9 12 15 15 15 15 14 14 13 13 12 12 12 12 11 11 11 11 11 11 11 10 10 10 10 9 8 8 7 6 6 5 5 4 4 4 3 3 3 2 2 2 2 2 3 3 4 5 6 7 7 8 8 9 9 10 10 10
1 2 2 2 1 1 1 1 2 3 3 3 4 4 4 3 3 3 3 2 2 2 1 1 2 3 4 5 7 10 14 15 15 15 14 14 14 13 13 12 12 12 12 11 11 11 11 11 11 10 10 10 10 9 9 8 7 7 6 6 5 5 5 4 4 4 3 2 2 1 1 1 1 2 3 4 4 6 6 7 8 8 9 9 10 10
1 1 1 2 1 1 0 0 1 2 2 3 3 3 3 3 2 2 2 2 2 2 2 2 1 1 1 1 4 8 11 13 14 15 14 14 14 13 13 13 12 12 11 11 11 10 10 10 10 10 10 9 9 9 8 8 7 7 6 6 5 5 5 5 4 4 4 3 2 2 1 1 0 1 2 3 3 4 5 6 7 8 8 9 9 9
1 0 1 1 1 0 1 1 1 2 2 2 2 2 2 2 2 2 2 2 2 2 2 2 2 2 2 1 1 4 7 10 12 13 14 14 14 13 13 12 12 11 11 10 10 9 9 9 9 9 9 8 8 8 8 7 7 6 6 6 5 5 5 5 4 4 3 2 2 1 1 1 1 1 1 2 3 4 5 6 6 7 8 8 8 8
1 0 1 1 1 1 1 1 1 1 1 2 2 3 2 2 2 1 2 2 2 2 2 2 2 2 2 1 1 1 3 6 8 9 11 11 12 12 12 12 11 11 10 9 9 8 8 8 9 9 9 8 8 8 8 7 7 7 7 6 6 5 5 5 4 4 3 2 1 1 0 0 0 0 1 1 2 3 4 5 6 7 7 7 7 8
2 1 0 1 1 1 1 1 1 1 1 1 2 3 3 3 2 1 2 2 2 2 2 2 2 2 2 2 2 1 0 2 3 4 5 5 6 7 9 9 9 9 9 9 9 10 10 11 11 11 11 11 10 10 10 9 9 8 8 7 7 6 6 6 6 5 5 4 3 3 2 2 1 1 2 2 3 4 5 5 6 6 7 7 7 7
1 1 1 0 0 1 1 1 0 1 1 1 2 2 3 3 3 2 2 2 2 2 2 2 2 2 2 3 3 3 2 3 3 4 4 3 4 4 6 6 6 7 10 10 11 12 13 13 13 13 13 13 13 12 11 11 10 9 9 8 8 8 8 8 8 7 7 7 6 6 6 5 5 5 5 5 5 6 6 6 6 6 6 6 7 7
1 1 1 1 1 1 1 1 1 0 1 2 2 2 2 2 2 3 3 3 2 2 2 3 3 3 2 3 3 4 3 3 4 4 5 5 5 6 7 8 8 9 11 12 12 13 14 14 14 14 14 13 13 12 12 11 11 10 10 10 9 9 10 10 10 10 10 10 10 9 9 9 9 8 8 8 8 8 7 7 7 7 7 6 6 6
1 1 1 1 1 1 1 1 1 1 2 2 2 2 2 1 2 2 4 4 3 3 3 2 2 3 3 3 3 3 3 2 3 3 4 4 4 5 6 7 8 9 9 10 11 11 12 13 13 13 13 12 12 12 12 11 11 12 12 11 11 12 12 12 12 12 12 12 12 11 11 11 11 10 10 9 9 9 8 8 7 7 7 7 6 6
1 1 1 1 1 1 1 1 1 1 1 2 2 2 2 2 2 2 2 3 3 3 3 3 2 2 3 3 2 3 3 2 2 3 3 3 3 3 3 3 4 4 4 5 6 6 8 10 11 11 11 12 12 13 13 12 13 13 13 13 13 13 13 13 13 13 13 13 12 12 12 11 11 11 10 10 10 9 9 8 8 8 7 7 7 7
1 1 1 1 1 1 1 2 1 1 1 1 1 1 2 2 2 2 3 3 3 3 3 3 2 2 2 2 3 3 2 2 1 2 3 3 3 3 3 2 2 2 3 3 4 4 5 5 6 8 10 11 12 13 13 13 14 14 14 14 14 14 14 14 14 13 13 13 12 12 12 12 11 11 11 10 10 10 10 9 9 9 8 8 8 8
1 2 2 2 2 2 1 2 2 2 2 1 1 1 1 1 2 3 4 4 3 3 3 3 3 2 1 2 3 3 3 2 1 2 3 3 3 3 3 2 1 1 2 3 3 3 3 3 3 4 7 8 10 11 12 13 14 15 15 15 15 15 14 14 14 13 13 12 12 12 12 12 12 11 11 11 11 11 10 10 10 10 10 9 9 9
1 2 3 3 2 2 2 2 2 2 2 2 1 1 2 1 2 2 4 4 4 3 4 3 3 2 1 2 3 3 3 2 2 2 3 2 3 3 3 2 1 2 3 3 3 2 2 3 3 4 6 9 12 13 14 14 14 15 15 15 15 14 14 14 13 13 13 12 12 12 12 12 12 12 11 11 11 11 11 11 11 10 10 10 10 10
1 1 2 3 3 2 2 2 2 2 2 2 2 2 2 1 1 1 2 3 3 3 3 4 3 2 2 1 2 3 3 2 2 2 2 2 2 3 3 2 1 2 3 3 3 2 2 3 3 4 6 10 13 14 14 14 14 15 14 14 14 14 14 14 13 13 13 12 12 12 12 12 12 11 11 11 11 11 11 11 11 11 11 11 11 10
3 2 2 3 3 3 3 2 2 2 2 2 2 2 2 2 1 1 1 2 3 3 3 3 3 3 3 2 1 1 2 2 1 2 2 2 2 3 3 2 1 2 3 3 3 3 3 2 2 3 7 11 13 14 14 14 14 14 14 14 14 14 14 13 13 13 13 12 12 12 12 11 11 11 11 11 11 11 11 11 11 11 11 11 11 11
4 4 3 3 3 3 3 3 3 3 2 2 2 2 2 2 2 2 2 1 2 2 3 2 1 1 2 2 2 1 1 1 2 2 3 2 1 2 3 2 1 2 3 3 3 3 3 3 2 6 10 13 14 14 14 14 14 14 14 14 14 14 14 13 13 13 13 12 12 12 11 11 11 11 11 11 11 11 11 11 11 11 11 11 11 11
4 5 4 4 3 3 4 4 4 3 3 3 2 2 2 2 3 2 2 1 1 2 3 3 2 2 2 2 2 2 2 2 2 3 2 2 0 2 3 2 1 2 3 3 3 3 3 3 3 5 10 12 13 14 14 14 14 14 15 14 14 14 13 13 13 13 13 12 12 11 11 11 11 11 11 11 11 11 11 11 12 12 12 12 12 12
4 5 4 4 3 3 3 4 4 4 4 4 3 2 3 3 3 2 2 1 2 2 3 3 3 2 2 2 2 3 3 3 2 2 2 1 1 1 2 2 1 2 3 2 2 3 3 3 3 3 6 11 14 14 14 14 14 14 14 14 14 14 14 13 13 13 12 12 11 11 11 11 11 11 11 11 11 11 11 11 12 12 12 12 12 12
4 4 4 4 3 3 3 3 4 5 5 4 4 3 3 3 3 3 2 2 3 3 4 4 3 3 3 3 3 3 3 3 2 2 2 2 1 2 2 2 1 2 3 2 2 3 3 3 3 3 5 11 14 15 14 14 14 14 14 14 14 14 14 14 13 13 12 11 11 11 10 10 10 10 11 11 11 11 11 11 12 12 12 12 12 12
4 3 3 3 3 3 3 2 3 3 4 4 4 4 3 3 3 3 3 3 3 4 4 4 4 4 4 4 3 3 4 3 2 2 2 2 2 2 2 2 2 2 2 2 2 3 4 4 4 4 5 11 14 14 14 14 14 14 14 14 14 14 14 13 12 12 11 11 11 10 10 10 10 11 11 11 11 11 11 11 11 12 12 12 12 12
4 3 3 3 2 2 2 2 2 2 2 3 3 3 3 3 3 3 3 3 3 3 3 4 4 4 4 4 4 4 4 3 2 2 2 2 2 2 2 3 2 2 2 2 2 2 3 4 4 4 5 10 13 14 15 14 14 14 15 14 14 13 13 12 12 11 11 11 10 10 10 10 10 10 10 11 11 11 11 11 11 11 11 11 11 12
4 4 4 4 5 5 5 5 4 4 4 3 3 3 3 4 4 4 3 3 3 3 3 4 4 4 3 3 3 3 4 3 3 2 2 2 1 2 2 3 2 2 2 2 2 2 2 3 4 4 4 7 10 14 15 15 15 15 14 14 13 12 12 11 11 11 11 10 10 10 10 10 10 10 10 10 10 11 11 11 11 11 11 11 11 11
9 9 10 11 13 14 15 14 14 12 10 7 5 3 3 3 3 3 3 3 3 3 3 3 3 2 2 2 3 3 3 3 3 3 2 2 2 1 1 2 2 2 2 2 2 2 2 3 3 3 4 4 8 11 14 15 15 14 13 13 12 12 11 11 11 11 10 10 10 10 10 10 10 10 10 10 10 10 11 11 11 11 11 10 10 11
16 17 18 19 20 20 20 20 20 19 18 14 11 8 5 4 3 3 4 3 3 2 2 2 2 2 2 2 2 2 2 3 3 3 2 1 2 2 0 1 1 1 1 2 2 2 2 3 3 3 3 3 5 8 13 14 14 13 13 12 12 11 11 11 11 11 10 10 10 10 10 10 10 10 10 10 10 10 10 10 10 10 10 9 8 8
18 18 19 19 20 20 20 20 20 20 20 18 17 14 8 5 4 4 3 3 2 1 1 2 2 2 2 2 2 2 2 3 3 3 2 1 1 1 0 0 1 1 1 1 1 2 2 2 2 2 2 3 3 6 10 12 12 12 12 12 11 11 11 11 11 11 10 10 10 10 10 10 10 10 10 10 10 10 10 10 10 9 8 7 5 4
16 17 18 18 18 18 18 18 18 19 20 19 18 15 10 7 5 4 3 3 2 1 1 2 2 2 2 2 2 2 2 3 3 3 2 1 1 1 0 1 1 1 1 0 1 1 2 2 1 1 1 2 3 4 6 8 9 9 9 10 11 11 11 11 11 10 10 10 10 10 10 10 10 10 10 10 10 11 11 11 10 8 6 4 4 3
12 13 14 15 15 14 13 13 14 16 18 18 17 14 10 7 5 4 3 3 2 1 2 2 2 2 2 2 2 2 2 2 3 3 2 1 1 1 1 1 1 2 1 1 1 1 1 1 1 1 1 2 3 4 4 4 5 5 5 7 8 9 10 11 11 10 10 10 10 10 10 10 10 11 11 11 11 11 11 11 9 7 3 3 3 3
9 9 9 9 9 9 9 9 10 11 13 14 14 12 9 7 5 4 4 4 3 3 2 2 2 2 2 2 2 1 1 2 3 4 3 1 1 1 1 1 1 1 1 1 1 1 0 1 1 1 1 2 3 3 3 3 3 3 3 4 5 6 9 10 10 9 9 10 10 10 10 11 11 11 11 11 11 11 12 12 10 7 3 3 3 3
7 7 7 6 6 6 7 7 7 8 9 9 9 9 8 7 6 5 5 4 4 3 3 3 2 2 2 2 2 2 1 1 3 5 3 2 1 1 1 1 1 1 1 1 2 2 1 1 2 2 2 2 2 2 3 3 3 3 3 3 3 4 7 8 8 8 8 9 9 10 10 11 11 11 12 12 12 12 12 12 11 8 4 3 3 4
6 6 5 6 6 6 6 6 6 6 7 7 7 7 7 7 7 6 5 5 4 4 3 3 3 3 3 3 3 3 2 1 3 5 4 2 1 1 1 1 1 1 1 1 1 2 2 0 1 2 2 2 2 2 3 3 3 3 3 3 3 3 5 5 5 5 6 6 7 8 9 10 10 11 12 12 12 12 12 12 12 10 7 4 3 4
6 6 6 6 6 6 6 6 7 7 6 6 6 6 6 6 6 6 6 5 4 4 4 3 3 3 3 3 3 3 2 2 4 5 4 2 1 1 1 1 1 1 1 1 1 1 1 1 0 1 2 2 2 2 2 2 3 3 3 3 2 2 3 3 4 4 4 4 4 4 5 6 8 9 10 11 11 12 12 12 12 12 10 6 4 3
6 6 6 6 6 6 6 6 6 6 6 6 6 6 5 5 5 5 5 5 4 4 4 4 3 3 3 3 3 3 2 2 3 5 4 2 1 1 1 1 1 1 1 1 1 1 1 1 1 1 1 2 2 2 2 2 2 2 2 2 2 2 2 2 2 3 3 3 3 2 3 3 4 6 7 9 11 12 12 13 13 13 12 10 8 5
6 6 6 6 6 6 6 6 6 6 5 5 5 5 5 5 4 4 4 4 4 4 4 4 4 3 3 3 3 3 2 1 3 4 4 2 1 1 1 1 1 1 2 1 1 1 1 1 1 1 1 1 2 2 2 2 2 3 3 2 2 2 2 1 1 1 2 2 2 2 2 3 3 4 5 9 11 12 12 13 13 13 13 12 11 9
6 6 5 5 5 5 5 5 5 5 5 4 4 4 4 4 4 4 4 4 4 4 4 5 4 4 5 4 3 3 2 2 2 3 3 2 1 1 2 1 1 1 2 1 1 1 1 1 1 1 1 0 1 1 2 2 3 3 3 2 2 2 2 2 1 1 1 1 2 2 3 3 4 4 5 8 10 10 11 12 12 12 12 12 12 11
5 5 5 4 4 4 4 4 4 4 4 3 3 3 3 3 4 4 4 4 4 4 4 4 4 5 7 6 5 4 3 3 3 3 4 2 2 1 2 1 1 1 1 1 2 2 2 1 1 0 0 1 1 1 2 2 2 2 2 2 2 2 2 2 1 1 0 1 2 3 4 4 4 4 4 5 6 6 6 6 8 9 10 10 11 11
5 4 4 4 4 4 4 4 3 3 3 3 3 3 3 3 4 4 4 4 4 4 4 4 3 4 5 6 7 6 5 5 5 5 4 3 2 2 2 1 1 0 0 0 1 2 2 2 1 1 0 1 1 1 1 1 1 1 2 2 2 2 2 1 1 0 0 1 2 4 4 4 4 3 3 4 4 4 4 4 5 6 6 5 6 8
4 4 4 4 4 3 3 3 3 2 2 3 3 4 4 3 3 3 4 4 4 4 4 4 3 3 4 5 6 6 6 5 5 5 4 3 2 2 2 2 1 1 1 1 1 2 2 2 1 1 1 0 1 1 1 1 1 1 2 2 2 2 2 1 1 1 1 1 2 3 3 4 3 3 3 3 3 3 3 3 4 4 4 3 3 3
4 4 4 3 4 4 3 3 2 2 2 3 3 4 4 4 3 3 4 4 4 4 4 4 4 4 4 4 4 4 5 5 5 5 3 3 3 2 2 2 2 1 1 2 2 2 2 1 1 1 1 1 1 1 1 1 2 3 3 2 2 2 2 2 1 1 1 2 2 3 4 4 4 4 4 4 4 3 3 3 3 4 3 2 1 1
5 4 3 3 3 3 3 3 3 3 3 3 4 4 4 4 3 3 3 3 4 4 4 3 3 3 4 4 4 4 5 4 5 4 4 3 3 3 2 2 2 1 2 2 2 2 2 2 1 1 1 1 1 2 2 2 2 3 4 3 3 3 3 3 2 1 2 3 3 4 5 4 4 4 4 4 3 3 3 3 4 4 4 2 1 1
4 3 2 2 2 2 3 4 4 4 4 4 4 4 4 3 3 3 4 3 3 4 4 3 2 2 3 3 3 4 4 4 4 4 4 3 3 3 2 2 2 2 2 2 2 2 2 2 1 0 0 0 0 1 2 2 2 3 3 2 2 2 2 3 2 2 2 3 3 4 3 3 3 3 3 3 3 2 2 3 5 6 5 3 2 2
3 2 2 2 2 3 3 4 4 3 3 4 4 4 4 4 4 4 4 3 3 4 4 3 2 2 3 3 3 3 4 4 5 5 4 5 4 3 3 2 2 2 2 2 2 1 2 1 1 0 1 1 1 1 1 1 2 2 2 2 1 1 2 2 2 3 3 3 3 3 3 3 3 3 2 2 2 2 2 2 3 3 4 3 3 3
2 2 2 3 3 3 4 4 3 3 3 4 4 4 4 4 4 5 4 3 4 4 3 3 2 2 2 2 2 2 3 3 4 4 4 6 7 6 3 2 2 2 2 2 2 2 1 0 1 1 0 0 0 1 1 1 2 2 2 2 2 2 3 3 2 3 3 3 3 3 3 2 2 3 3 3 3 3 3 3 3 3 3 3 3 4
3 3 3 3 3 4 4 3 3 3 3 4 4 4 4 4 3 4 4 4 4 3 3 3 3 2 2 2 2 2 2 3 3 3 3 4 5 5 4 3 2 1 1 2 2 2 2 1 1 1 1 1 0 1 1 1 2 2 2 3 2 2 2 3 3 3 3 3 3 3 2 2 2 3 4 4 4 4 3 3 3 4 4 4 4 4
3 3 3 3 3 3 3 3 3 3 3 4 4 4 4 3 3 4 4 4 3 3 3 3 3 3 3 2 2 2 3 3 3 3 3 3 4 4 4 4 3 2 1 1 1 1 2 2 2 2 1 0 1 1 1 1 2 2 2 2 2 2 2 2 3 2 2 2 2 2 3 3 3 4 4 4 4 4 4 3 3 3 4 4 4 4
3 3 3 3 3 3 3 3 3 3 3 3 3 3 4 4 4 4 3 3 3 3 4 3 3 3 3 3 3 3 3 3 3 3 3 3 3 3 4 3 3 3 2 2 2 1 1 2 2 3 3 2 1 1 2 2 2 2 2 1 1 2 2 3 2 2 1 1 2 2 2 3 3 4 5 5 5 5 4 4 3 3 3 4 4 4
2 2 2 3 3 3 3 3 3 3 3 3 3 3 3 4 5 5 3 3 3 3 3 3 3 3 3 3 3 4 4 4 3 3 2 3 3 3 3 3 3 3 3 3 3 3 3 2 2 3 4 4 3 2 2 2 2 1 1 1 1 1 2 2 2 2 2 2 2 3 3 3 2 3 3 5 5 6 5 5 4 4 3 3 3 4
2 2 2 2 2 3 2 3 3 3 3 3 3 3 3 3 4 4 3 3 3 3 2 2 2 2 2 2 3 3 4 3 3 3 3 3 2 3 3 3 3 3 3 3 4 4 4 4 3 2 3 4 5 4 2 2 1 1 1 1 1 1 1 1 2 2 2 3 3 4 4 3 3 2 2 4 5 6 6 5 5 4 3 3 3 4
2 2 2 2 2 2 2 2 2 3 3 3 3 3 3 3 3 3 3 3 3 3 2 2 2 2 2 2 3 3 4 3 3 3 4 3 3 3 3 3 3 3 3 3 3 4 4 4 4 4 3 3 3 4 3 2 1 0 1 1 1 1 0 1 1 2 2 3 3 3 4 4 3 3 2 3 4 5 6 6 5 5 4 4 4 5
Wind_Direction
298 317 342 116 121 132 167 171 166 162 170 177 180 179 173 178 188 194 186 176 169 164 164 163 164 165 165 165 165 164 164 165 166 168 170 171 171 171 170 168 166 163 161 159 156 154 152 150 148 146 145 143 141 138 135 130 122 113 103 96 89 84 81 78 74 70 65 61 57 55 53 52 50 47 44 41 38 36 33 30 28 26 25 24 22 20
307 332 337 106 121 132 164 176 172 167 170 178 182 182 174 176 184 197 202 186 175 168 164 163 163 165 168 167 166 166 166 167 169 170 172 173 174 173 172 170 168 166 165 163 161 159 157 156 155 153 152 151 150 149 147 143 136 127 118 109 99 91 86 81 78 74 68 63 58 55 52 50 47 44 41 38 35 32 30 27 26 24 23 22 20 18
202 248 265 181 141 140 155 177 181 178 172 176 180 180 175 177 180 186 192 192 184 175 167 164 163 166 169 170 169 169 169 170 171 173 175 175 175 175 174 172 171 170 168 167 165 164 163 162 160 159 159 158 157 157 156 153 149 143 136 127 119 109 100 93 88 84 78 71 63 56 50 46 42 40 37 33 30 28 26 24 23 22 21 20 18 16
181 186 201 192 172 159 162 175 180 182 178 176 174 174 173 179 183 184 180 178 177 173 167 162 163 166 170 173 174 173 172 172 174 175 177 177 177 176 175 174 173 173 171 171 170 169 168 167 166 165 164 163 162 162 161 160 157 153 149 144 138 131 124 119 115 112 108 100 87 70 53 41 35 30 28 25 24 23 21 20 20 19 19 18 16 13
215 194 185 173 172 188 218 168 165 167 168 165 164 165 172 183 184 177 160 147 137 126 99 118 148 163 169 174 178 178 177 176 177 178 178 179 178 177 176 175 175 175 174 174 174 173 172 171 170 169 167 166 165 165 163 162 160 158 155 152 148 145 144 143 143 144 145 143 143 137 104 41 18 13 11 14 15 16 16 15 16 16 17 15 13 10
232 203 154 153 156 162 321 53 118 136 146 150 152 156 164 175 169 152 132 121 111 96 74 52 45 60 143 182 191 189 185 182 181 180 180 180 179 179 177 176 176 176 177 177 177 176 175 173 171 169 168 167 166 165 163 161 159 156 154 151 149 148 149 149 151 153 154 157 163 168 178 203 293 334 349 360 6 9 10 11 12 13 13 12 9 6
234 273 72 105 107 84 34 27 64 107 135 143 146 148 152 154 143 127 118 113 107 97 84 63 45 31 25 351 227 207 198 190 186 184 183 182 181 180 178 177 177 178 178 179 178 176 172 169 167 165 164 164 161 158 157 153 150 146 144 141 141 141 142 142 143 144 144 150 156 166 180 204 238 291 327 350 360 5 7 8 9 10 10 7 5 2
209 212 63 94 93 71 42 22 28 59 114 137 144 147 147 147 134 111 100 93 90 86 80 63 48 35 23 25 27 222 214 196 191 187 185 184 182 181 179 178 178 178 178 177 173 166 159 154 151 149 148 146 143 140 138 135 132 130 128 127 127 126 125 123 120 115 111 108 106 112 141 183 246 297 339 2 9 12 13 11 10 9 7 3 360 357
180 168 141 116 117 113 93 38 5 10 69 119 139 145 148 154 152 128 95 83 76 68 64 57 48 34 16 28 39 50 84 167 176 178 177 181 181 180 177 174 173 171 167 161 154 146 139 135 132 131 129 127 126 124 123 122 121 120 119 117 114 111 107 101 96 89 82 76 69 61 54 49 43 37 40 37 34 31 28 23 18 13 7 2 357 353
137 141 129 70 81 116 125 124 11 343 32 74 102 120 130 145 154 154 132 104 82 64 56 46 41 31 16 18 20 29 51 85 105 117 120 129 140 147 147 146 147 146 140 136 132 129 126 124 123 121 120 120 119 119 119 119 117 115 112 108 103 98 93 88 85 80 76 72 69 65 61 59 57 55 54 52 48 45 40 34 27 20 12 4 357 352
83 82 90 44 7 11 66 117 139 21 39 59 63 69 86 113 139 152 154 138 117 90 71 53 40 26 12 9 8 11 28 62 77 82 84 94 105 111 111 111 114 117 118 118 118 118 118 118 119 118 118 119 119 118 118 116 114 110 105 100 96 92 88 85 82 80 77 74 72 69 67 65 63 61 59 56 52 48 44 38 31 24 16 7 359 353
108 101 93 77 41 21 23 49 61 63 62 76 84 92 92 102 126 143 153 150 139 125 107 83 58 38 28 15 1 356 7 49 73 75 67 65 70 81 92 94 97 100 103 102 103 106 110 113 115 117 117 118 118 117 116 112 109 105 100 97 94 91 88 85 83 80 78 76 73 71 68 66 63 60 58 54 51 46 41 36 30 23 16 9 2 356
114 120 109 92 71 50 27 37 43 51 55 92 128 149 161 149 142 143 153 154 150 138 124 112 91 64 47 31 12 354 348 22 71 85 78 56 40 38 56 72 77 78 82 82 80 84 95 105 110 114 116 116 115 114 112 108 105 102 100 97 94 92 89 86 83 81 78 75 73 70 67 64 60 57 53 50 46 41 37 32 27 22 17 11 6 3
111 112 98 80 64 46 32 38 53 62 55 60 104 140 151 139 137 147 170 187 178 152 127 121 109 85 58 37 22 3 338 344 48 81 81 63 37 20 18 46 63 70 74 71 63 57 61 81 99 109 112 112 112 111 109 106 104 102 99 97 95 92 89 87 83 81 77 74 71 68 64 60 56 53 49 45 42 38 33 29 25 22 17 13 10 8
130 120 110 97 81 59 39 39 48 54 47 30 23 34 56 78 117 146 171 190 185 162 138 129 116 96 72 46 28 9 343 346 32 70 76 54 30 15 9 18 38 60 69 73 67 53 44 63 85 102 106 108 109 109 107 105 103 101 99 97 95 92 89 86 83 80 76 73 69 65 61 57 53 50 46 43 39 36 32 28 25 21 18 14 12 11
109 121 124 117 103 82 60 53 55 56 45 25 17 30 55 70 108 141 160 168 164 154 152 148 140 120 81 53 36 20 1 6 27 53 68 41 16 7 6 1 32 60 66 72 68 56 42 61 83 101 107 109 109 108 106 104 102 101 99 97 95 92 89 86 83 79 75 71 67 63 59 55 52 48 44 41 37 33 30 26 23 20 17 14 11 9
33 76 109 109 105 93 73 59 56 54 45 27 21 29 47 53 79 126 147 150 150 154 162 161 160 156 131 78 43 27 15 21 38 56 64 39 10 358 357 358 49 75 70 67 61 53 48 61 80 98 108 109 108 106 105 103 102 100 99 97 94 91 89 86 82 79 75 70 66 62 57 54 50 46 42 38 34 31 27 24 20 17 14 12 9 7
27 37 62 81 87 82 68 58 48 41 38 29 26 31 45 42 42 55 112 136 148 154 161 169 172 165 143 129 92 40 25 43 65 76 77 59 16 350 344 348 37 78 76 62 48 37 35 42 72 104 110 109 108 106 104 103 101 99 96 94 91 89 86 84 81 78 74 69 65 60 56 51 47 43 39 35 31 27 23 20 16 13 11 8 6 3
31 32 41 57 65 65 59 51 43 36 28 23 20 24 38 47 46 45 49 82 118 130 129 127 124 115 109 117 108 78 42 76 85 90 100 86 33 340 329 332 23 70 74 58 39 24 18 20 72 108 113 110 107 105 103 101 98 95 92 90 87 85 83 80 78 75 71 67 63 58 53 49 44 39 35 31 27 23 19 16 12 9 7 4 2 360
41 34 31 43 55 60 54 44 37 30 24 20 20 28 39 48 53 54 51 66 88 99 100 92 80 68 81 97 86 62 35 68 86 96 105 102 37 311 313 321 47 81 75 54 32 18 12 12 49 92 108 106 104 101 98 96 93 90 88 85 83 81 78 75 72 70 66 63 59 54 49 45 40 35 30 26 22 18 15 11 8 5 3 1 359 357
57 46 31 31 40 52 53 42 34 29 24 22 28 38 44 48 48 46 37 60 79 87 89 89 81 70 71 73 59 37 18 46 74 95 103 90 35 330 323 332 42 83 81 56 33 21 20 22 18 48 103 101 98 95 92 89 87 85 83 81 79 76 73 69 66 64 61 57 53 49 45 40 35 31 26 22 18 14 10 7 3 1 359 357 355 353
67 61 45 40 44 53 57 47 37 31 28 30 35 41 43 46 47 42 32 44 60 74 82 86 84 78 73 72 60 40 23 43 66 90 99 79 47 3 337 330 7 76 82 54 29 20 27 32 26 42 94 99 95 90 86 84 82 79 77 74 71 69 66 63 61 59 56 52 48 44 40 35 30 26 22 17 13 10 6 2 359 356 354 353 352 350
68 69 65 59 60 62 61 51 40 34 34 40 45 47 46 49 50 48 37 44 56 69 79 87 88 84 77 73 63 47 34 42 57 78 85 81 55 10 341 327 347 51 72 41 21 22 33 40 32 36 65 87 88 84 81 77 74 71 68 66 64 62 61 59 57 54 51 48 44 39 35 30 26 21 17 13 9 5 1 358 354 352 350 350 349 348
66 70 72 76 80 81 78 70 62 54 48 53 57 60 62 65 64 61 52 51 58 68 81 88 87 83 76 71 62 48 35 30 40 65 82 74 50 16 344 333 355 44 63 31 19 26 46 49 40 34 44 71 76 76 74 70 66 63 61 60 58 58 56 55 53 50 47 43 39 35 30 26 21 17 13 9 5 1 358 354 351 348 347 347 347 346
66 69 72 75 75 75 73 70 67 64 61 60 59 60 66 73 77 76 69 62 61 64 72 79 81 79 73 67 61 51 36 25 30 50 88 85 60 18 347 342 355 22 38 1 355 19 64 61 48 37 34 51 62 67 67 65 61 59 57 56 55 54 53 51 49 46 42 39 34 30 26 22 18 13 9 5 2 358 354 350 347 345 345 346 346 346
62 61 60 61 62 63 63 62 59 57 55 53 49 42 41 55 62 63 58 53 54 58 66 70 73 74 68 64 59 50 36 30 30 38 71 100 101 68 357 348 351 360 3 345 345 13 70 69 54 38 32 32 48 56 59 58 57 55 54 52 52 51 49 48 45 42 38 34 31 26 22 19 15 11 7 3 359 355 351 348 345 344 345 347 347 344
58 57 56 56 56 56 56 56 55 53 51 49 46 42 37 39 47 51 45 36 35 51 78 85 89 88 78 72 65 53 37 35 31 27 25 88 108 108 49 345 346 353 360 347 350 15 63 66 54 39 32 17 31 45 52 52 52 50 49 48 47 47 45 43 41 38 34 30 26 23 19 16 12 9 5 2 358 354 349 346 344 345 347 349 347 342
52 52 51 50 50 50 51 52 53 53 51 49 46 44 41 43 48 48 36 12 360 22 106 115 117 113 103 93 82 65 47 43 30 17 357 50 94 102 116 327 345 3 13 355 2 21 46 53 45 29 16 17 34 46 50 49 47 46 44 43 43 43 42 40 37 33 30 26 23 19 16 13 11 8 4 1 356 352 348 345 344 346 349 349 344 332
48 48 48 46 46 46 47 49 51 52 52 51 48 46 43 47 50 46 22 348 335 349 110 115 115 113 111 109 102 81 56 43 25 8 350 33 73 80 332 359 13 16 11 23 20 19 25 27 19 6 352 24 44 51 48 46 45 43 40 39 38 38 38 35 32 29 26 22 19 17 14 12 9 7 3 359 355 350 346 344 344 346 352 348 337 325
43 43 43 41 41 41 42 43 46 48 50 50 50 48 46 48 48 40 14 354 353 16 77 91 98 104 115 118 110 86 53 31 13 4 1 39 60 47 352 22 24 20 7 44 54 32 354 344 347 353 351 32 45 51 46 46 45 44 38 35 35 34 33 31 28 24 21 18 16 14 12 10 8 6 2 358 353 349 345 343 343 345 350 343 332 325
42 42 40 37 35 35 37 40 42 44 45 46 47 46 46 46 43 36 21 14 15 27 51 66 75 85 102 115 112 96 61 11 2 5 17 43 64 44 3 30 27 17 2 67 100 112 293 313 321 339 2 26 39 44 39 43 47 48 41 36 33 30 27 24 21 18 15 13 12 11 11 10 7 4 0 356 351 347 343 342 342 342 343 339 332 325
47 46 43 38 35 35 38 39 41 41 42 42 41 41 41 42 40 36 29 24 24 29 40 52 56 57 58 75 86 91 78 2 360 7 23 42 62 47 18 42 35 14 360 59 105 126 148 291 310 328 356 9 17 19 16 28 38 45 41 38 32 23 17 16 14 11 8 8 9 9 9 9 6 3 358 354 349 345 342 341 340 341 340 336 329 322
52 49 44 41 40 40 39 39 40 41 42 41 40 39 38 38 38 38 35 29 27 29 35 45 53 57 61 69 75 80 78 19 6 10 21 39 59 50 22 40 34 20 2 33 71 102 125 165 298 317 339 349 354 353 351 10 27 38 42 39 29 14 5 6 6 5 2 4 6 7 8 7 5 1 356 351 346 342 340 340 340 339 339 333 327 322
52 49 45 43 42 42 40 40 40 41 41 40 39 39 37 36 36 36 36 33 32 31 32 38 46 56 67 76 81 82 74 23 7 9 21 39 67 68 39 41 41 35 27 30 39 56 86 86 6 331 326 332 336 341 340 357 15 29 42 43 31 7 351 357 357 357 357 1 2 3 4 4 2 359 353 347 342 340 338 339 339 338 338 335 331 327
51 47 43 41 41 41 40 39 39 39 38 37 36 36 35 35 34 34 33 32 33 35 36 35 38 45 58 74 84 84 68 15 2 6 20 39 74 93 68 60 64 68 67 52 45 45 50 43 33 13 341 330 328 329 333 345 360 13 27 36 26 1 335 348 356 358 356 358 355 353 354 357 358 354 348 341 338 337 337 337 337 337 336 335 334 332
50 46 41 39 39 40 41 39 37 36 35 33 31 31 31 32 32 32 31 30 33 37 41 40 39 41 49 64 75 78 67 17 1 7 19 36 77 106 99 116 124 112 99 90 80 74 69 40 32 34 31 342 319 314 321 340 360 10 15 15 1 341 322 347 16 21 3 356 350 348 349 351 352 347 340 336 334 334 334 334 334 334 334 334 333 332
52 48 42 38 38 40 41 38 35 33 30 27 25 25 26 28 29 29 30 29 31 33 38 40 42 45 50 62 71 74 66 35 15 13 19 25 67 106 114 141 155 141 127 135 137 135 118 86 44 34 70 185 278 299 317 345 2 9 4 354 338 325 317 351 28 56 44 360 347 346 349 350 348 342 334 332 332 332 332 331 330 330 330 330 330 330
53 50 45 41 38 38 38 37 34 30 25 20 19 18 19 23 26 28 30 30 31 31 32 32 37 43 46 56 62 65 60 41 32 26 23 23 46 90 111 124 138 148 151 161 157 147 133 118 90 17 333 265 265 277 307 345 355 351 329 319 310 307 309 338 14 53 68 359 348 347 348 347 343 336 329 329 330 329 328 326 325 325 326 326 326 327
53 51 47 44 41 38 37 36 32 24 15 12 14 16 16 22 27 30 31 31 30 30 27 29 33 38 40 46 49 49 47 40 36 33 30 29 39 65 91 96 86 29 322 160 144 137 131 133 137 150 250 289 296 301 317 344 341 318 309 315 315 312 308 327 355 31 44 7 353 348 344 340 336 331 324 324 324 322 321 317 316 318 321 322 322 323
55 52 48 45 42 39 37 33 27 17 8 13 20 24 24 24 24 26 27 30 30 26 20 19 24 31 36 40 40 38 37 34 33 34 33 30 34 49 70 75 65 38 15 47 78 95 108 122 137 159 181 255 297 309 319 323 298 287 304 320 321 315 316 335 349 3 23 13 356 344 335 331 329 326 323 320 318 314 310 307 308 310 313 315 316 320
56 51 43 38 35 34 37 29 23 19 25 29 32 31 27 24 23 23 26 27 27 25 19 17 18 20 22 24 24 25 28 29 31 32 36 32 35 43 55 57 52 45 45 49 54 60 70 73 58 23 359 333 319 311 301 289 287 293 303 312 318 320 327 334 341 351 353 349 341 335 329 327 327 325 321 317 310 301 294 293 294 297 303 302 301 313
55 49 37 28 23 22 20 19 26 32 38 40 40 37 30 24 23 26 29 27 26 23 20 16 17 20 21 14 9 8 12 16 20 26 36 43 46 47 46 40 36 40 59 57 51 45 42 47 42 26 6 2 345 326 309 302 312 325 338 339 338 334 327 321 325 340 351 336 330 327 329 325 322 318 313 309 302 295 293 294 299 304 311 310 299 286
45 39 24 13 10 13 22 30 34 35 36 39 40 36 28 21 22 29 36 33 27 22 19 14 20 28 33 18 5 356 353 353 359 7 21 43 63 67 55 42 35 40 61 63 51 32 21 36 46 65 137 73 15 299 293 310 324 332 337 339 345 344 323 308 311 323 334 324 321 320 322 319 314 306 303 299 295 294 298 303 307 310 313 306 295 284
36 25 8 7 15 27 36 36 33 33 35 39 38 33 24 20 24 31 38 33 27 23 18 8 13 35 43 23 4 349 340 338 342 350 357 16 33 55 69 61 57 63 81 84 74 46 15 10 351 258 206 159 165 218 267 286 296 295 286 294 299 288 265 282 300 316 319 315 315 318 318 316 313 309 305 301 297 297 297 297 297 296 296 287 282 279
24 20 14 20 28 33 37 34 30 30 36 40 36 30 21 19 23 30 35 32 28 24 19 7 13 29 32 11 355 341 335 334 338 342 345 358 8 19 41 55 70 85 97 104 111 115 96 340 292 278 264 129 162 217 247 262 272 278 279 283 280 269 254 269 286 299 302 306 309 312 316 322 324 325 321 313 307 300 292 289 287 285 283 283 281 279
31 28 22 25 32 36 35 29 27 30 37 38 34 27 17 14 20 29 33 30 28 25 21 22 31 38 27 1 347 342 341 338 337 339 340 344 349 356 6 16 33 64 104 124 141 151 157 180 214 246 343 7 336 248 225 230 249 269 278 288 295 299 294 290 286 285 288 298 303 308 315 334 343 339 327 319 312 304 293 286 283 282 284 283 282 279
36 33 27 29 32 33 29 24 26 31 35 35 31 23 13 10 19 29 32 26 24 25 26 32 39 42 32 11 356 347 345 340 334 331 332 335 338 341 346 353 4 18 52 85 152 180 188 192 188 179 140 42 315 291 266 233 229 242 266 287 305 313 307 296 290 290 302 306 306 311 327 346 346 336 324 319 313 307 301 295 287 281 280 281 280 280
38 35 30 30 32 32 28 25 27 31 34 29 26 20 14 13 22 29 29 20 21 26 30 32 34 31 23 9 358 351 348 342 331 326 327 331 333 336 340 342 348 357 7 8 360 333 267 225 199 181 166 167 194 248 272 260 241 233 250 275 293 293 283 282 289 301 329 324 319 319 339 346 338 329 323 318 313 309 307 305 297 288 277 276 276 279
39 32 29 32 36 36 31 25 27 31 33 28 24 20 13 17 24 28 26 19 21 28 33 33 31 27 17 3 356 353 354 348 338 328 328 330 333 336 337 341 349 358 359 358 356 352 339 313 251 207 186 176 180 201 242 255 257 252 256 263 259 260 267 279 295 314 335 331 330 330 335 331 323 316 316 314 310 307 307 305 300 292 280 275 274 278
39 34 31 36 38 38 32 27 29 32 33 31 27 21 12 14 18 20 18 20 25 31 33 34 33 28 16 1 357 357 359 353 345 339 336 335 337 340 339 343 355 5 4 360 358 357 352 342 327 286 221 196 186 186 204 236 264 295 318 275 240 228 252 280 297 314 331 330 330 329 329 323 317 315 316 308 305 303 304 304 301 297 290 285 282 283
28 29 29 33 37 35 28 27 29 32 30 31 30 25 16 13 9 9 11 17 20 22 21 27 30 27 13 3 360 360 1 357 349 341 334 331 334 340 342 346 355 5 9 5 1 1 1 356 346 332 302 256 209 178 161 175 187 330 329 296 274 237 239 273 291 306 321 322 323 322 322 318 314 311 309 305 303 303 304 303 302 299 297 296 294 292